COSMOS 2361 [-]

Last updated on July 6, 2021, 3:40 p.m. UTC

1 25590U 98076A   21186.84658028  .00000016  00000-0  88766-6 0  9998
2 25590  82.9349 102.3676 0032970  91.7004 330.5593 13.72997699128679
UTC
Height (km)
Latitude
Longitude
Inclination
Orbital Period
UTC large
Height (km)
Speed (km/s)
/
Latitude / Longitude
Inclination (degrees)
Orbital Period (minutes)
Azimuth
Elevation
Range (km)
Doppler Factor
iOS Compass Heading
iOS Angle